This is the latest recevied weather packets stored in our database for station/object WC4PEM-7. If no packets are shown the sender has not sent any weather packets the latest 10 day(s).
| Time | Temp. | Humidity | Pressure | Rain* | Wind** | Luminosity | Snow |
|---|---|---|---|---|---|---|---|
| 1777333918 | 25° C | 73% | 1016.4 hPa | 0 mm | - | - | - |
| 1777333748 | 25° C | 73% | 1016.4 hPa | 0 mm | - | - | - |
| 1777333448 | 25° C | 72% | 1016.3 hPa | 0 mm | - | - | - |
| 1777333316 | 25° C | 72% | 1016.4 hPa | 0 mm | - | - | - |
| 1777333148 | 25° C | 72% | 1016.4 hPa | 0 mm | - | - | - |
| 1777332848 | 25.56° C | 71% | 1016.3 hPa | 0 mm | - | - | - |
| 1777332548 | 25.56° C | 71% | 1016.1 hPa | 0 mm | - | - | - |
| 1777332248 | 25.56° C | 71% | 1016.1 hPa | 0 mm | - | - | - |
| 1777331948 | 25.56° C | 71% | 1016.1 hPa | 0 mm | - | - | - |
| 1777331648 | 25.56° C | 71% | 1015.9 hPa | 0 mm | - | - | - |
| 1777331348 | 25.56° C | 70% | 1015.9 hPa | 0 mm | - | - | - |
| 1777331048 | 26.11° C | 70% | 1015.8 hPa | 0 mm | - | - | - |
| 1777330897 | 26.11° C | 69% | 1015.9 hPa | 0 mm | - | - | - |
| 1777330748 | 26.11° C | 69% | 1015.9 hPa | 0 mm | - | - | - |
| 1777330549 | 26.67° C | 67% | 1015.6 hPa | 0 mm | - | - | - |
| 1777330448 | 26.67° C | 68% | 1015.7 hPa | 0 mm | - | - | - |
| 1777330148 | 26.67° C | 67% | 1015.6 hPa | 0 mm | - | - | - |
| 1777329848 | 26.67° C | 66% | 1015.6 hPa | 0 mm | - | - | - |
| 1777329548 | 26.67° C | 65% | 1015.6 hPa | 0 mm | - | - | - |
| 1777329361 | 27.22° C | 66% | 1015.6 hPa | 0 mm | - | - | - |
| 1777329248 | 26.67° C | 67% | 1015.6 hPa | 0 mm | - | - | - |
| 1777328948 | 27.22° C | 66% | 1015.6 hPa | 0 mm | - | - | - |
| 1777328897 | 27.22° C | 66% | 1015.5 hPa | 0 mm | - | - | - |
| 1777328648 | 27.22° C | 66% | 1015.5 hPa | 0 mm | - | - | - |
| 1777328348 | 27.22° C | 66% | 1015.5 hPa | 0 mm | - | - | - |
* Rain latest hour (hover to see other rain measurements)
** Current wind speed in m/s (hover to see current wind gust speed)